FW3227 Weather Reports


time (UTC)temp
C
wind
direction
speed
KPH
gust
KPH
rain 1hr
cm
rain 24hr
cm
rain mn
cm
humidity
%
barometer
mb
20260508062549 9 55 0.0 4.8 0.00 0.05 0.00 69 1011.8
20260508062044 9 129 0.0 0.0 0.00 0.05 0.00 68 1011.0
20260508061546 9 129 0.0 0.0 0.00 0.05 0.00 67 1010.5
20260508061043 9 129 0.0 0.0 0.00 0.05 0.00 66 1010.4
20260508060541 9 129 0.0 0.0 0.00 0.05 0.00 67 1010.5
20260508060041 10 129 0.0 0.0 0.00 0.05 0.00 67 1010.4
20260508055540 10 129 0.0 0.0 0.00 0.05 0.05 66 1010.4
20260508055040 10 129 0.0 0.0 0.00 0.05 0.05 66 1010.4
20260508054540 10 129 0.0 0.0 0.00 0.05 0.05 66 1010.4
20260508054040 10 129 0.0 0.0 0.00 0.05 0.05 66 1010.4
20260508053540 10 129 0.0 0.0 0.00 0.05 0.05 65 1010.3
20260508053042 10 129 0.0 0.0 0.00 0.05 0.05 65 1010.5
20260508052539 10 129 0.0 17.7 0.00 0.05 0.05 64 1010.5
20260508052040 10 129 1.6 17.7 0.00 0.05 0.05 64 1010.6
20260508051542 10 129 3.2 9.7 0.00 0.05 0.05 62 1010.9
20260508051042 11 51 0.0 1.6 0.00 0.05 0.05 61 1011.1
20260508050538 11 55 0.0 1.6 0.00 0.05 0.05 60 1011.1
20260508050041 11 55 0.0 0.0 0.00 0.05 0.05 58 1010.8
20260508045538 11 55 0.0 0.0 0.00 0.05 0.05 56 1010.7
20260508045038 11 55 0.0 0.0 0.00 0.05 0.05 56 1010.5
20260508044538 11 55 0.0 0.0 0.00 0.05 0.05 55 1010.4
20260508044040 11 55 0.0 0.0 0.00 0.05 0.05 54 1010.3
20260508043537 11 55 0.0 0.0 0.00 0.05 0.05 53 1010.3
20260508043053 11 54 0.0 1.6 0.00 0.05 0.05 52 1010.4
20260508042537 12 54 0.0 1.6 0.00 0.05 0.05 52 1010.5
20260508042036 12 54 0.0 0.0 0.00 0.05 0.05 51 1010.5
20260508041546 12 54 0.0 0.0 0.00 0.05 0.05 50 1010.5
20260508041039 12 54 0.0 0.0 0.00 0.05 0.05 49 1010.6
20260508040537 12 54 0.0 0.0 0.00 0.05 0.05 48 1010.7
20260508040039 12 54 0.0 0.0 0.00 0.05 0.05 49 1010.6
20260508035537 12 54 0.0 0.0 0.00 0.05 0.05 47 1010.7
20260508035037 12 54 0.0 0.0 0.00 0.05 0.05 49 1010.7
20260508034536 12 54 0.0 0.0 0.00 0.05 0.05 50 1010.7
20260508034037 12 54 0.0 0.0 0.00 0.05 0.05 47 1010.8
20260508033536 12 54 0.0 0.0 0.00 0.05 0.05 46 1010.7
20260508033035 12 54 0.0 4.8 0.00 0.05 0.05 47 1010.8
20260508032536 13 54 0.0 6.4 0.00 0.05 0.05 46 1010.8
20260508032037 13 54 0.0 6.4 0.00 0.05 0.05 46 1010.8
20260508031535 13 39 0.0 0.0 0.00 0.05 0.05 46 1011.0
20260508031034 13 39 0.0 0.0 0.00 0.05 0.05 46 1011.3
20260508030534 13 39 0.0 0.0 0.00 0.05 0.05 45 1011.3
20260508030134 13 39 0.0 0.0 0.00 0.05 0.05 45 1011.2
20260508025534 13 39 0.0 0.0 0.00 0.05 0.05 44 1010.9
20260508025034 13 39 0.0 1.6 0.00 0.05 0.05 44 1010.8
20260508024534 13 39 0.0 1.6 0.00 0.05 0.05 43 1010.6
20260508024034 13 39 0.0 3.2 0.00 0.05 0.05 43 1010.6
20260508023534 13 21 0.0 3.2 0.00 0.05 0.05 42 1010.5
20260508023035 14 51 0.0 8.0 0.00 0.05 0.05 42 1010.4
20260508022532 14 279 0.0 12.9 0.00 0.05 0.05 43 1010.5
20260508022033 14 260 1.6 17.7 0.00 0.05 0.05 40 1010.7
20260508021536 14 272 1.6 17.7 0.00 0.05 0.05 39 1010.7
20260508021032 14 289 0.0 8.0 0.00 0.05 0.05 37 1010.4
20260508020532 14 254 0.0 0.0 0.00 0.05 0.05 43 1010.2
20260508020043 14 254 0.0 0.0 0.00 0.05 0.05 47 1010.0
20260508015531 14 254 0.0 0.0 0.00 0.05 0.05 45 1010.0
20260508015031 15 254 0.0 0.0 0.00 0.05 0.05 47 1009.9
20260508014632 15 254 0.0 0.0 0.00 0.05 0.05 45 1009.8
20260508014033 15 254 0.0 0.0 0.00 0.05 0.05 47 1009.7
20260508013532 15 254 0.0 0.0 0.00 0.05 0.05 45 1009.6
20260508013030 15 254 0.0 0.0 0.00 0.05 0.05 45 1009.6
20260508012530 15 254 0.0 0.0 0.00 0.05 0.05 43 1009.6
20260508012031 15 254 0.0 0.0 0.00 0.05 0.05 41 1009.6
20260508011531 15 254 0.0 0.0 0.00 0.05 0.05 42 1009.6
20260508011030 16 254 0.0 0.0 0.00 0.05 0.05 41 1009.6
20260508010530 16 254 0.0 0.0 0.00 0.05 0.05 35 1009.6
20260508010033 16 254 0.0 0.0 0.00 0.05 0.05 34 1009.6
20260508005529 16 254 0.0 0.0 0.00 0.05 0.05 36 1009.7
20260508005028 16 254 0.0 0.0 0.00 0.05 0.05 36 1009.7
20260508004528 16 254 0.0 0.0 0.00 0.05 0.05 36 1009.9
20260508004031 16 254 0.0 0.0 0.00 0.05 0.05 33 1010.0
20260508003530 16 254 0.0 0.0 0.00 0.05 0.05 33 1010.0
20260508003028 16 254 0.0 0.0 0.00 0.05 0.05 33 1009.9
20260508002528 16 254 0.0 0.0 0.00 0.05 0.05 32 1009.9
20260508002027 16 254 0.0 0.0 0.00 0.05 0.05 32 1010.0
20260508001546 16 254 0.0 0.0 0.00 0.05 0.05 31 1010.0
20260508001025 16 254 0.0 0.0 0.00 0.05 0.05 32 1010.1
20260508000524 16 254 0.0 0.0 0.00 0.05 0.05 32 1010.2
20260508000023 16 254 0.0 0.0 0.00 0.05 0.05 32 1010.4
20260507235523 16 254 0.0 0.0 0.00 0.05 0.05 36 1010.4
20260507235123 16 254 0.0 0.0 0.00 0.05 0.05 33 1010.4
20260507234525 16 254 0.0 0.0 0.00 0.05 0.05 31 1010.3
20260507234053 16 254 0.0 0.0 0.00 0.05 0.05 31 1010.5
20260507233522 16 254 0.0 0.0 0.00 0.05 0.05 31 1010.4
20260507233022 16 254 0.0 0.0 0.00 0.05 0.05 31 1010.6
20260507232521 16 254 0.0 0.0 0.00 0.05 0.05 30 1010.7
20260507232019 16 254 0.0 0.0 0.00 0.05 0.05 30 1010.8
20260507231524 17 254 0.0 0.0 0.00 0.05 0.05 29 1010.8
20260507231018 17 254 0.0 0.0 0.00 0.05 0.05 29 1010.9
20260507230517 17 254 0.0 0.0 0.00 0.05 0.05 30 1010.9
20260507230017 17 254 0.0 4.8 0.00 0.05 0.05 27 1011.0
20260507225520 18 254 0.0 4.8 0.00 0.13 0.05 28 1011.0
20260507225018 18 254 0.0 4.8 0.00 0.13 0.05 29 1011.1
20260507224516 18 254 0.0 6.4 0.00 0.13 0.05 28 1011.1
20260507224015 18 255 0.0 14.5 0.00 0.13 0.05 27 1011.2
20260507223517 18 260 1.6 22.5 0.00 0.13 0.05 28 1011.3
20260507223015 19 254 6.4 20.9 0.00 0.13 0.05 28 1011.3
20260507222514 19 249 1.6 19.3 0.00 0.13 0.05 30 1011.4
20260507222012 19 254 0.0 19.3 0.00 0.13 0.05 27 1011.7
20260507221511 19 252 1.6 30.6 0.00 0.13 0.05 29 1011.7
20260507221010 20 262 6.4 30.6 0.00 0.13 0.05 29 1011.9
20260507220508 20 258 3.2 16.1 0.00 0.13 0.05 27 1012.0
20260507220019 20 258 0.0 14.5 0.00 0.13 0.05 28 1012.1
20260507215508 20 255 1.6 14.5 0.00 0.25 0.05 26 1012.2
20260507215009 20 257 0.0 12.9 0.00 0.25 0.05 25 1012.4
20260507214506 20 266 1.6 17.7 0.00 0.25 0.05 26 1012.5
20260507214006 20 243 1.6 20.9 0.00 0.25 0.05 26 1012.5
20260507213506 20 256 3.2 24.1 0.00 0.25 0.05 29 1012.6
20260507213007 19 248 1.6 24.1 0.00 0.25 0.05 28 1012.6
20260507212505 19 270 9.7 22.5 0.00 0.25 0.05 27 1012.7
20260507212004 19 264 4.8 22.5 0.00 0.25 0.05 27 1012.7
20260507211504 19 244 0.0 4.8 0.00 0.25 0.05 27 1012.8
20260507211003 19 231 0.0 17.7 0.00 0.25 0.05 28 1012.9
20260507210502 20 255 6.4 20.9 0.00 0.25 0.05 25 1013.0
20260507210001 21 257 6.4 24.1 0.00 0.25 0.05 25 1013.1
20260507205601 21 261 8.0 24.1 0.00 0.58 0.05 27 1013.2
20260507205101 21 254 3.2 27.4 0.00 0.58 0.05 27 1013.2
20260507204600 21 268 6.4 27.4 0.00 0.58 0.05 28 1013.4
20260507204058 21 239 4.8 24.1 0.00 0.58 0.05 28 1013.4
20260507203557 21 260 0.0 3.2 0.00 0.58 0.05 29 1013.6
20260507203057 20 264 0.0 25.7 0.00 0.58 0.05 27 1013.6
20260507202557 20 264 3.2 25.7 0.00 0.58 0.05 26 1013.8
20260507202054 20 276 3.2 24.1 0.00 0.58 0.05 29 1013.9
20260507201558 20 252 0.0 25.7 0.00 0.58 0.05 27 1014.1
20260507201051 20 277 6.4 25.7 0.00 0.58 0.05 31 1014.2
20260507200551 19 258 3.2 35.4 0.00 0.58 0.05 28 1014.3
20260507200049 19 249 6.4 35.4 0.00 0.58 0.05 27 1014.5
20260507195549 19 263 0.0 20.9 0.00 0.91 0.05 28 1014.5
20260507195048 19 264 6.4 20.9 0.00 0.91 0.05 28 1014.7
20260507194548 20 250 3.2 30.6 0.00 0.91 0.05 28 1014.7
20260507194047 20 264 3.2 30.6 0.00 0.91 0.05 27 1014.8
20260507193546 20 258 3.2 20.9 0.00 0.91 0.05 31 1014.9
20260507193050 19 260 4.8 20.9 0.00 0.91 0.05 30 1015.0
20260507192543 19 252 6.4 20.9 0.00 0.91 0.05 30 1015.0
20260507192044 19 262 3.2 24.1 0.00 0.91 0.05 28 1015.2
20260507191550 19 243 6.4 24.1 0.00 0.91 0.05 28 1015.3
20260507191041 19 221 1.6 16.1 0.00 0.91 0.05 31 1015.3
20260507190539 18 252 1.6 25.7 0.00 0.91 0.05 33 1015.6
20260507190037 18 259 4.8 25.7 0.00 0.91 0.05 32 1015.6
20260507185536 18 242 8.0 25.7 0.00 1.04 0.05 34 1015.8
20260507185038 18 244 4.8 22.5 0.00 1.04 0.05 34 1015.9
20260507184533 17 250 1.6 17.7 0.00 1.04 0.05 34 1015.9
20260507184031 17 242 1.6 17.7 0.00 1.04 0.05 34 1016.1
20260507183530 17 247 3.2 16.1 0.00 1.04 0.05 36 1016.3
20260507183030 17 254 1.6 16.1 0.00 1.04 0.05 35 1016.4
20260507182528 17 249 0.0 17.7 0.00 1.04 0.05 40 1016.4
20260507182032 17 239 1.6 17.7 0.00 1.04 0.05 37 1016.5
20260507181527 17 244 4.8 20.9 0.00 1.04 0.05 34 1016.5
20260507181026 16 254 6.4 20.9 0.00 1.04 0.05 36 1016.6
20260507180526 16 235 4.8 19.3 0.00 1.04 0.05 37 1016.7
20260507180021 16 255 4.8 19.3 0.00 1.04 0.05 42 1016.7
20260507175520 15 249 3.2 12.9 0.00 1.17 0.05 39 1016.7
20260507175023 15 245 1.6 11.3 0.00 1.17 0.05 36 1016.7
20260507174529 15 244 0.0 11.3 0.00 1.17 0.05 38 1016.8
20260507174016 15 211 0.0 16.1 0.00 1.17 0.05 40 1016.9
20260507173515 15 239 1.6 16.1 0.00 1.17 0.05 39 1017.1
20260507173018 15 241 0.0 19.3 0.00 1.17 0.05 39 1017.1
20260507172515 15 254 4.8 19.3 0.00 1.17 0.05 40 1017.2
20260507172013 15 214 0.0 12.9 0.00 1.17 0.05 40 1017.3
20260507171516 15 235 0.0 12.9 0.00 1.17 0.05 43 1017.3
20260507171012 15 249 0.0 16.1 0.00 1.17 0.05 39 1017.5
20260507170509 14 242 4.8 16.1 0.00 1.17 0.05 41 1017.6
20260507170007 14 243 1.6 14.5 0.00 1.17 0.05 43 1017.8
20260507165505 13 229 0.0 14.5 0.00 1.27 0.05 46 1017.9
20260507165004 13 229 1.6 12.9 0.00 1.27 0.05 42 1018.1
20260507164504 12 232 0.0 1.6 0.00 1.27 0.05 45 1018.2
20260507164007 12 238 0.0 6.4 0.00 1.27 0.05 45 1018.2
20260507163503 12 235 0.0 11.3 0.00 1.27 0.05 44 1018.2
20260507163002 12 241 0.0 11.3 0.00 1.27 0.05 46 1018.3
20260507162502 12 227 0.0 4.8 0.00 1.27 0.05 43 1018.4
20260507162101 12 229 0.0 6.4 0.00 1.27 0.05 44 1018.5
20260507161600 12 231 0.0 6.4 0.00 1.27 0.05 42 1018.6
20260507161058 12 226 0.0 6.4 0.00 1.27 0.05 43 1018.8
20260507160557 12 225 0.0 1.6 0.00 1.27 0.05 44 1018.8
20260507160056 12 229 0.0 9.7 0.00 1.27 0.05 43 1018.9
20260507155553 12 229 0.0 9.7 0.00 1.32 0.05 43 1019.0
20260507155052 12 227 0.0 3.2 0.00 1.32 0.05 44 1019.0
20260507154551 11 247 0.0 1.6 0.00 1.32 0.05 45 1019.1
20260507154049 11 247 0.0 4.8 0.00 1.32 0.05 44 1019.2
20260507153549 11 247 0.0 4.8 0.00 1.32 0.05 44 1019.3
20260507153052 11 222 0.0 6.4 0.00 1.32 0.05 43 1019.3
20260507152546 10 239 0.0 6.4 0.00 1.32 0.05 44 1019.3
20260507152145 10 239 0.0 9.7 0.00 1.32 0.05 46 1019.3
20260507151544 10 239 0.0 9.7 0.00 1.32 0.05 42 1019.3
20260507151041 10 213 0.0 3.2 0.03 1.32 0.05 41 1019.5
20260507150540 10 211 0.0 3.2 0.03 1.32 0.05 42 1019.5
20260507150041 10 212 0.0 0.0 0.03 1.32 0.05 44 1019.5
20260507145537 10 211 0.0 0.0 0.03 1.32 0.05 44 1019.5
20260507145036 9 211 0.0 0.0 0.03 1.32 0.05 43 1019.5
20260507144534 9 212 0.0 0.0 0.03 1.32 0.05 46 1019.6
20260507144033 8 211 0.0 0.0 0.03 1.32 0.05 44 1019.6
20260507143533 8 213 0.0 0.0 0.03 1.32 0.05 45 1019.7
20260507143034 8 213 0.0 1.6 0.05 1.32 0.05 44 1019.6
20260507142529 8 213 0.0 1.6 0.05 1.32 0.05 45 1019.7
20260507142027 8 213 0.0 4.8 0.05 1.32 0.05 45 1019.7
20260507141525 8 213 0.0 6.4 0.05 1.32 0.05 46 1019.7
20260507141024 7 212 0.0 9.7 0.03 1.30 0.03 46 1019.8
20260507140522 7 209 0.0 8.0 0.03 1.30 0.03 49 1019.8
20260507140020 7 206 0.0 6.4 0.03 1.30 0.03 46 1019.8
20260507135522 7 206 0.0 4.8 0.03 1.30 0.03 48 1019.8
20260507135018 6 205 0.0 0.0 0.03 1.30 0.03 49 1019.8
20260507134516 6 205 0.0 0.0 0.03 1.30 0.03 49 1019.9
20260507134015 6 205 0.0 0.0 0.03 1.30 0.03 50 1019.9
20260507133513 5 205 0.0 0.0 0.03 1.30 0.03 54 1019.9
20260507133011 5 205 0.0 0.0 0.00 1.27 0.00 53 1019.9
20260507132514 4 205 0.0 0.0 0.00 1.27 0.00 54 1019.9
20260507132009 4 205 0.0 0.0 0.00 1.27 0.00 55 1020.0
20260507131510 3 205 0.0 0.0 0.00 1.27 0.00 56 1020.0
20260507131008 3 205 0.0 0.0 0.00 1.27 0.00 56 1019.9
20260507130504 3 205 0.0 0.0 0.00 1.27 0.00 57 1019.9
20260507130004 2 205 0.0 1.6 0.00 1.27 0.00 58 1019.9
20260507125502 2 205 0.0 1.6 0.00 1.27 0.00 60 1019.8
20260507125101 1 164 0.0 0.0 0.00 1.27 0.00 63 1019.8
20260507124559 0 163 0.0 0.0 0.00 1.27 0.00 67 1019.7
20260507124059 0 163 0.0 0.0 0.00 1.27 0.00 67 1019.6
20260507123558 0 162 0.0 0.0 0.00 1.27 0.00 67 1019.6
20260507123058 0 162 0.0 1.6 0.00 1.27 0.00 65 1019.4
20260507122556 0 161 0.0 1.6 0.00 1.27 0.00 67 1019.4
20260507122055 0 161 0.0 0.0 0.00 1.27 0.00 67 1019.5
20260507121606 0 161 0.0 0.0 0.00 1.27 0.00 66 1019.5
20260507121055 0 161 0.0 0.0 0.00 1.27 0.00 66 1019.5
20260507120555 0 161 0.0 0.0 0.00 1.27 0.00 66 1019.3
20260507120059 0 161 0.0 0.0 0.00 1.27 0.00 66 1019.4
20260507115554 0 161 0.0 1.6 0.00 1.27 0.00 65 1019.4
20260507115054 0 159 0.0 1.6 0.00 1.27 0.00 66 1019.4
20260507114609 0 193 0.0 0.0 0.00 1.27 0.00 66 1019.3
20260507114053 0 193 0.0 0.0 0.00 1.27 0.00 66 1019.4
20260507113552 0 193 0.0 0.0 0.00 1.27 0.00 67 1019.3
20260507113053 0 193 0.0 0.0 0.00 1.27 0.00 67 1019.3
20260507112555 0 193 0.0 0.0 0.00 1.27 0.00 66 1019.3
20260507112055 0 193 0.0 0.0 0.00 1.27 0.00 67 1019.3
20260507111554 0 193 0.0 0.0 0.00 1.27 0.00 68 1019.2
20260507111051 0 193 0.0 0.0 0.00 1.27 0.00 67 1019.2
20260507110551 0 193 0.0 0.0 0.00 1.27 0.00 68 1019.3
20260507110053 0 193 0.0 0.0 0.00 1.27 0.00 67 1019.4
20260507105549 0 193 0.0 0.0 0.00 1.27 0.00 67 1019.4
20260507105050 0 193 0.0 0.0 0.00 1.27 0.00 68 1019.4
20260507104549 0 193 0.0 0.0 0.00 1.27 0.00 67 1019.4
20260507104049 0 193 0.0 0.0 0.00 1.27 0.00 68 1019.4
20260507103549 0 193 0.0 0.0 0.00 1.27 0.00 66 1019.5
20260507103048 0 193 0.0 0.0 0.00 1.27 0.00 68 1019.4
20260507102547 0 193 0.0 0.0 0.00 1.27 0.00 68 1019.5
20260507102046 0 193 0.0 0.0 0.00 1.27 0.00 67 1019.6
20260507101546 0 193 0.0 0.0 0.00 1.27 0.00 66 1019.7
20260507101045 0 193 0.0 0.0 0.00 1.27 0.00 66 1019.7
20260507100543 0 193 0.0 0.0 0.00 1.27 0.00 65 1019.7
20260507100043 0 193 0.0 0.0 0.00 1.27 0.00 65 1019.9
20260507095543 1 193 0.0 0.0 0.00 1.27 0.00 67 1020.0
20260507095043 1 193 0.0 0.0 0.00 1.27 0.00 67 1020.0
20260507094544 1 193 0.0 0.0 0.00 1.27 0.00 65 1020.0
20260507094043 1 193 0.0 0.0 0.00 1.27 0.00 64 1020.0
20260507093542 1 193 0.0 1.6 0.00 1.27 0.00 66 1020.1
20260507093145 1 193 0.0 1.6 0.00 1.27 0.00 65 1020.1
20260507092542 1 190 0.0 0.0 0.00 1.27 0.00 64 1020.0
20260507092040 1 190 0.0 0.0 0.00 1.27 0.00 66 1020.0
20260507091541 1 190 0.0 0.0 0.00 1.27 0.00 64 1020.1
20260507091038 1 190 0.0 0.0 0.00 1.27 0.00 65 1020.1
20260507090537 1 190 0.0 0.0 0.00 1.27 0.00 65 1020.0
20260507090037 1 190 0.0 0.0 0.00 1.27 0.00 66 1019.9
20260507085533 1 190 0.0 0.0 0.00 1.27 0.00 66 1020.0
20260507085032 0 189 0.0 0.0 0.00 1.27 0.00 68 1020.0
20260507084532 0 189 0.0 0.0 0.00 1.27 0.00 69 1020.1
20260507084030 0 188 0.0 0.0 0.00 1.27 0.00 69 1020.2
20260507083529 0 188 0.0 1.6 0.00 1.27 0.00 70 1020.2
20260507083028 0 188 0.0 1.6 0.00 1.27 0.00 71 1020.2
20260507082526 0 188 0.0 0.0 0.00 1.27 0.00 74 1020.3
20260507082025 0 188 0.0 0.0 0.00 1.27 0.00 76 1020.2
20260507081538 0 188 0.0 0.0 0.00 1.27 0.00 76 1020.2
20260507081023 0 188 0.0 0.0 0.00 1.27 0.00 75 1020.1
20260507080525 0 188 0.0 0.0 0.00 1.27 0.00 75 1020.2
20260507080020 0 188 0.0 1.6 0.00 1.27 0.00 78 1020.4
20260507075521 0 188 0.0 1.6 0.00 1.27 0.00 78 1020.5
20260507075018 0 184 0.0 0.0 0.00 1.27 0.00 80 1020.6
20260507074530 0 184 0.0 0.0 0.00 1.27 0.00 81 1020.7
20260507074018 0 184 0.0 0.0 0.00 1.27 0.00 80 1020.8
20260507073517 0 184 0.0 0.0 0.00 1.27 0.00 81 1020.8
20260507073017 0 184 0.0 0.0 0.00 1.27 0.00 82 1020.8
20260507072518 0 183 0.0 0.0 0.00 1.27 0.00 82 1020.9
20260507072015 0 183 0.0 0.0 0.00 1.27 0.00 83 1020.8
20260507071517 0 183 0.0 0.0 0.00 1.27 0.00 84 1020.8
20260507071014 0 183 0.0 0.0 0.00 1.27 0.00 85 1020.7
20260507070513 0 183 0.0 0.0 0.00 1.27 0.00 85 1020.8
20260507070019 0 183 0.0 0.0 0.00 1.27 0.00 85 1020.8
20260507065512 0 183 0.0 0.0 0.00 1.27 0.00 86 1020.7
20260507065011 0 183 0.0 0.0 0.00 1.27 0.00 86 1020.8
20260507064511 0 183 0.0 0.0 0.00 1.27 0.00 86 1020.8
20260507064010 -1 183 0.0 0.0 0.00 1.27 0.00 87 1021.0
20260507063509 -1 183 0.0 0.0 0.00 1.27 0.00 87 1020.8
20260507063016 -1 183 0.0 0.0 0.00 1.27 0.00 87 1020.7